This demonstration page uses our WeatherBlox Daily Observations layout. Learn more.

Left ArrowRight Arrow

31.31129, -92.44514

Hourly Observations for December 6, 2020

Temp ( °F °C ) Dew Point ( °F °C ) Humidity (%) Winds ( mph kmh ) Pressure ( in mb ) Visibility ( mi km ) Precip ( " mm )
12:53 am 00:53 Cloudy 45 7.2 44 6.7 97 97 Calm 30.13 1020 8 13 0.00 0.00
1:53 am 01:53 Mostly Cloudy 44 6.7 42 5.6 93 93 W 6 9 30.11 1020 8 13 0.00 0.00
2:53 am 02:53 Cloudy 44 6.7 42 5.6 93 93 Calm 30.09 1019 10 16 0.00 0.00
3:53 am 03:53 Clear 43 6.1 41 5 93 93 Calm 30.07 1018 7 11 0.00 0.00
4:53 am 04:53 Mostly Cloudy 43 6.1 41 5 93 93 Calm 30.07 1018 6 10 0.00 0.00
5:53 am 05:53 Mostly Cloudy 44 6.7 42 5.6 93 93 Calm 30.06 1018 9 14 0.00 0.00
6:53 am 06:53 Clear 44 6.7 43 6.1 96 96 SSW 3 6 30.07 1018 8 13 0.00 0.00
7:53 am 07:53 Mostly Sunny 45 7.2 43 6.1 93 93 Calm 30.08 1019 7 11 0.00 0.00
8:53 am 08:53 Cloudy with Light Rain 47 8.3 44 6.7 90 90 Calm 30.09 1019 9 14 0.00 0.00
9:53 am 09:53 Cloudy 48 8.9 45 7.2 89 89 W 5 7 30.09 1019 9 14 0.00 0.00
10:53 am 10:53 Cloudy 51 10.6 44 6.7 77 77 W 3 6 30.07 1018 10 16 0.00 0.00
11:53 am 11:53 Mostly Cloudy 54 12.2 45 7.2 72 72 Calm 30.04 1017 10 16 0.00 0.00
12:53 pm 12:53 Mostly Cloudy 56 13.3 43 6.1 62 62 Calm 30.00 1016 10 16 0.00 0.00
1:53 pm 13:53 Cloudy 59 15 42 5.6 54 54 WSW 6 9 29.98 1015 10 16 0.00 0.00
2:53 pm 14:53 Cloudy 61 16.1 38 3.3 43 43 W 6 9 29.97 1015 10 16 0.00 0.00
3:53 pm 15:53 Sunny 60 15.6 41 5 50 50 W 7 11 29.98 1015 10 16 0.00 0.00
4:53 pm 16:53 Sunny 56 13.3 44 6.7 65 65 W 5 7 29.98 1015 10 16 0.00 0.00
5:53 pm 17:53 Clear 52 11.1 43 6.1 72 72 Calm 30.00 1016 10 16 0.00 0.00
6:53 pm 18:53 Clear 49 9.4 43 6.1 80 80 Calm 30.01 1016 10 16 0.00 0.00
7:53 pm 19:53 Clear 48 8.9 43 6.1 83 83 Calm 30.02 1017 10 16 0.00 0.00
8:53 pm 20:53 Clear 46 7.8 43 6.1 89 89 Calm 30.03 1017 10 16 0.00 0.00
9:53 pm 21:53 Clear 43 6.1 42 5.6 97 97 NW 5 7 30.06 1018 10 16 0.00 0.00
10:53 pm 22:53 Clear 44 6.7 41 5 89 89 NNW 7 11 30.06 1018 10 16 0.00 0.00
11:53 pm 23:53 Clear 42 5.6 40 4.4 92 92 NW 5 7 30.06 1018 10 16 0.00 0.00

Powered by AerisWeather